Location: Kellogg
(38.0159°N, 90.0546°W)
Time: 14:42:38
(UTC+00:00)

Courier 1B - Pass Details

Date: 09 September 2024
Orbit: 962 x 1208 km, 28.3° (Epoch: 07 October)

Event Time Altitude Azimuth Distance (km) Brightness Sun altitude
Rises 00:38:49 0° 255° (WSW) 4,093 12.1 -4.9°
Reaches altitude 10° 00:41:51 10° 248° (WSW) 3,138 11.2 -5.4°
Maximum altitude 00:49:04 41° 181° (S) 1,670 8.7 -6.8°
Drops below altitude 10° 00:56:12 10° 115° (ESE) 3,093 9.5 -8.2°
Enters shadow 00:56:29 - 114° (ESE) 3,178 9.5 -8.3°
Sets 00:59:09 0° 108° (ESE) 4,029 - -8.8°
